COSMOS 1275 DEB

Satellite information

Favourite Embed

Satellite Type and Status

DEBRISIN ORBIT

Key statistics

Satellite COSMOS 1275 DEB at a glance.

Uptime

16264

Days in orbit

Revolutions

≈ 13.9

Per day

Orbit

LEO

Low Earth Orbit

Inclination

83.3

Latest

Satellite identification and parameters

Extended collection of information and parameters for COSMOS 1275 DEB.

Object identification

Identified? True

Debris? True

Object name: COSMOS 1275 DEB

International designator: 1981-053BU

Object number (NORAD): 12727

Object ID (CCSDS): 12727

Country: COMMONWEALTH OF INDEPENDENT STATES (CIS)

Current information (Y/N): Y

RCS size: MEDIUM

Orbital parameters

Period: 103.337 minutes

Inclination: 83.2871 deg

SMA: 7294.522 km

Apoapsis: 982.568 km

Periapsis: 850.206 km

RAAN: 150.9653 deg

Eccentricy: 0.00907272

Argument of periapsis: 285.2313 deg

Mean anomaly: 196.6217 deg

Mean motion: 13.93501619 rev/day

Mean motion (dot): 0.00001812 rev/day2

B* drag term: 0.0013261345 1/REarth

Two-line elements (TLE)

Creation date: Dec. 13, 2025, 4:32 a.m.

Reference frame: TEME

Reference center: EARTH

Epoch: Dec. 12, 2025, 10:41 p.m. UTC

TLE line 0: 0 COSMOS 1275 DEB

TLE line 1: 1 12727U 81053BU 25346.94581506 .00001812 00000-0 13261-2 0 9991

TLE line 2: 2 12727 83.2871 150.9653 0090727 285.2313 196.6217 13.93501619232331

Live tracking on map

Real-time ground track for satellite COSMOS 1275 DEB.

In-orbit conjunctions

A list of the most updated potential collisions computed for object COSMOS 1275 DEB.

Target Orbit TCA Probability of collision Miss distance Type
THOR ABLESTAR DEB LEO 2024-10-04 02:30:03 0.0001210489 212.0 (m) DEBRIS
FENGYUN 1C DEB SSO 2024-08-22 22:18:18 0.0001086158 182.0 (m) DEBRIS

Associated space launch

Navigation satellite providing location information for the Tsiklon-B navigation system

COSMOS 1275 DEB was lifted into orbit during the mission ‘Kosmos-3M | Parus 27’, on board a Kosmos-3M space rocket.

The launch took place on June 4, 1981, 3:41 p.m. from 132/2.

For more information about the launch, click the button.

Launch to space Kosmos-3M | Parus 27
Kosmos-3M | Parus 27

Agency: N/A

Status: Launch Successful

Launch date: June 4, 1981, 3:41 p.m. UTC

Rocket: Kosmos-3M

Launch pad: 132/2

Location: Plesetsk Cosmodrome, Russian Federation

...

Latest news about this satellite

There are no fresh news available about this satellite. Check back as we update our databases every day.


Newsletter sign-up

Weekly statistics, charts and insights to help you stay on top of the space industry.